SCP
1 0 0 0 0 0 0 0 0 0 0 0 0 1 1 0 0 0 0 0 0 0 1 1 2 1 2 2 1 1 2 2 2 2 2 2 2 2 2 3 3 3 3 4 5 6 7 8 8
0 0 1 1 0 0 0 0 1 0 0 0 1 1 1 0 0 0 0 0 0 0 1 1 2 2 2 2 1 1 2 2 2 2 2 2 2 2 2 3 3 3 3 4 5 6 6 7 8
1 1 1 1 1 0 0 0 1 0 0 0 1 1 1 0 0 0 0 0 0 0 1 1 2 2 2 2 2 1 1 2 2 2 2 2 2 2 3 3 3 4 4 4 4 5 6 7 7
1 1 1 1 1 0 0 1 1 1 1 1 1 1 1 0 0 0 0 0 0 0 0 1 2 2 2 2 2 2 1 2 2 3 3 2 3 3 3 4 4 4 4 4 4 4 5 6 6
1 1 1 0 0 0 0 1 1 1 1 1 1 1 0 0 0 0 0 0 0 0 0 1 1 1 1 2 2 2 2 2 2 2 2 3 3 3 3 4 4 4 4 4 4 4 5 6 7
1 1 0 0 0 0 0 0 1 1 1 1 1 1 0 0 0 0 0 0 0 0 0 1 1 1 1 1 2 2 2 2 2 2 2 2 2 3 3 4 4 4 4 4 4 4 4 5 6
1 0 0 0 0 0 0 0 1 1 1 1 1 1 1 0 0 1 1 0 0 1 1 1 1 1 1 1 2 2 2 1 1 1 1 1 2 2 3 3 3 3 3 3 3 3 4 5 6
1 0 0 0 0 0 1 1 1 1 1 1 1 1 1 1 1 1 1 0 0 1 1 1 1 1 1 1 1 1 1 1 1 1 1 1 1 2 2 2 2 2 3 3 3 3 3 5 6
0 0 0 0 0 1 1 1 1 1 1 1 1 1 1 1 1 1 1 0 0 1 1 1 1 1 1 1 1 1 1 1 1 1 1 1 1 1 2 2 2 2 2 2 2 3 3 4 5
1 0 0 0 1 1 1 1 0 1 1 1 1 1 1 1 1 1 1 1 0 1 1 1 1 1 0 0 1 1 1 1 1 1 1 1 1 1 1 2 2 2 2 2 2 2 3 3 3
1 1 1 1 1 1 1 1 0 0 1 1 2 2 2 1 1 1 1 1 0 0 1 1 1 1 0 0 0 0 0 1 1 1 1 1 1 1 1 1 1 1 1 2 1 1 1 2 2
1 1 1 1 1 1 1 0 0 0 0 1 1 2 2 1 1 1 1 1 1 1 1 1 1 1 1 0 0 0 0 1 1 1 1 1 1 1 1 1 1 1 1 1 1 1 1 1 1
1 1 1 1 1 1 0 0 0 0 0 1 1 1 1 1 1 0 0 1 1 1 1 1 1 1 1 0 0 0 1 1 1 1 1 1 1 1 1 1 1 1 1 1 1 1 1 1 1
1 1 1 1 0 0 0 0 0 0 1 1 1 1 1 1 1 0 0 0 1 1 1 2 2 1 1 1 0 0 1 1 1 1 1 1 1 1 1 1 1 1 1 1 1 1 1 1 1
1 1 0 0 0 0 1 0 1 1 1 1 1 1 1 1 0 0 0 0 0 1 1 2 2 2 1 1 1 0 0 0 0 0 0 1 1 1 1 1 1 1 1 1 1 1 1 1 1
1 0 0 0 0 0 0 0 1 1 1 1 1 1 1 0 0 0 0 0 0 1 1 2 3 2 2 1 1 0 0 0 0 0 0 0 0 0 1 1 1 1 1 1 1 1 1 1 1
0 0 0 0 0 0 0 0 1 1 1 1 1 1 1 0 0 0 0 0 0 0 1 2 3 3 3 2 1 0 0 0 0 0 0 0 0 0 0 1 1 1 1 1 1 1 1 1 1
0 0 0 0 0 0 0 0 1 1 1 1 0 1 1 0 0 0 0 0 0 0 1 1 3 4 4 3 1 1 0 0 0 1 1 1 1 1 1 1 1 1 1 2 2 2 2 2 2
0 0 0 0 0 0 0 0 0 1 1 0 0 0 0 0 0 1 1 1 1 1 1 1 2 3 4 3 2 1 1 1 1 1 1 1 2 2 2 2 2 2 2 2 2 2 2 3 3
0 0 0 0 0 0 0 0 0 1 1 1 0 0 0 0 1 1 1 1 1 1 1 1 1 2 3 3 2 2 2 2 2 1 1 1 2 2 3 2 2 2 2 2 2 2 2 3 3
0 0 0 0 0 0 0 0 0 1 1 1 1 0 0 1 1 1 1 1 1 1 1 1 1 2 3 3 3 2 3 2 2 1 1 1 1 2 2 1 1 1 1 1 1 1 2 2 3
0 0 0 0 0 0 0 0 0 1 1 1 1 0 1 1 1 1 2 2 1 1 1 1 1 1 2 3 3 2 2 2 1 1 1 1 1 1 1 1 0 1 1 1 1 1 1 1 2
0 0 0 0 0 0 0 0 0 1 1 1 1 1 1 1 1 1 2 2 2 2 1 1 1 1 2 3 3 2 2 2 1 1 1 1 1 1 1 1 1 0 0 1 1 1 1 1 1
0 0 0 0 0 0 0 0 0 1 1 1 1 1 1 1 1 2 2 2 2 2 2 2 1 1 2 2 2 2 2 2 1 1 1 1 1 1 1 1 1 1 1 1 1 1 1 1 1
0 0 0 0 0 0 0 0 0 0 1 1 1 1 1 1 2 3 3 3 3 2 2 2 2 2 2 2 2 2 2 2 2 2 1 1 1 1 1 1 1 1 1 1 1 1 1 2 2
0 0 0 0 0 0 0 0 0 0 0 1 1 1 1 1 2 3 3 3 3 3 2 2 2 2 2 2 1 1 1 1 1 2 1 1 1 1 1 1 1 1 1 2 2 2 2 2 2
0 0 0 0 0 0 0 0 0 1 1 1 1 1 1 1 2 3 3 3 4 4 3 3 3 3 2 2 1 1 1 1 1 1 1 1 1 1 1 1 1 1 1 2 1 1 1 2 2
0 0 0 0 0 0 0 0 0 1 1 1 1 1 1 1 2 2 3 3 4 4 3 3 3 3 2 2 1 1 1 1 1 1 1 1 1 1 1 1 1 1 1 1 1 1 1 1 1
0 0 0 0 0 0 0 0 0 1 1 1 1 1 1 1 2 2 3 3 3 3 3 3 3 3 2 2 2 2 1 1 1 1 1 1 1 2 1 1 1 1 1 1 1 1 1 1 1
0 0 0 0 0 0 0 0 0 1 1 1 1 1 1 1 1 2 2 2 2 2 2 3 3 2 2 2 2 2 2 1 1 1 1 1 2 2 2 1 1 1 1 1 1 1 1 1 1
Wind_Speed
9 6 3 1 2 3 2 2 1 2 3 3 4 5 5 3 1 1 2 1 2 1 1 1 3 3 3 4 5 6 5 6 6 6 6 7 7 7 7 8 9 9 10 11 13 13 14 13 13
6 5 1 1 3 2 3 2 2 2 4 4 4 5 5 3 2 2 1 1 2 1 2 1 4 4 4 5 6 6 6 6 6 7 7 7 7 7 7 8 8 9 10 11 13 13 13 13 12
6 3 0 2 2 1 1 1 3 4 3 2 3 4 3 2 2 1 0 1 2 2 2 1 4 5 5 5 5 6 6 6 7 7 7 7 7 6 6 7 8 9 10 10 12 13 12 12 12
3 0 1 3 1 2 2 1 3 4 3 4 4 4 3 3 1 2 2 3 3 2 2 1 4 4 5 5 5 6 6 7 7 7 7 7 7 6 5 6 8 9 9 9 10 11 12 11 11
1 2 3 3 2 2 0 2 1 3 3 3 4 4 3 4 4 5 4 3 2 2 2 2 4 4 4 5 5 5 6 6 6 7 7 7 6 6 5 6 8 9 9 9 10 11 11 11 11
2 3 4 2 3 2 1 2 2 4 3 3 4 3 2 2 4 4 3 3 2 2 3 3 3 3 4 4 5 5 6 6 7 7 7 7 6 6 6 7 9 9 10 10 10 11 10 10 9
2 3 1 0 1 2 2 2 2 3 3 2 3 4 1 1 2 4 4 4 4 3 3 3 3 3 3 4 4 5 6 6 7 7 6 6 6 7 8 9 9 10 10 10 10 10 10 9 9
2 3 2 0 0 1 1 2 2 3 3 3 3 4 3 3 4 5 5 4 4 4 4 4 4 4 3 2 3 4 6 6 7 7 6 6 6 7 9 9 10 10 10 10 10 10 9 9 9
2 4 0 2 2 2 0 2 1 3 4 3 3 3 4 8 7 6 4 3 3 3 3 3 4 4 3 3 3 3 5 6 6 5 6 5 4 4 5 8 10 10 10 10 10 10 9 8 8
3 2 4 3 3 2 1 2 2 3 3 3 5 6 8 8 7 6 4 2 1 1 2 2 3 3 3 2 3 3 3 3 4 4 4 4 4 4 5 7 8 9 9 9 9 8 7 5 4
3 3 2 1 2 2 2 2 3 5 1 3 7 9 9 8 6 5 3 2 1 0 1 2 2 2 2 2 2 2 2 3 3 4 4 3 4 3 4 3 4 5 6 5 5 5 4 4 3
2 2 1 1 1 2 2 2 3 2 2 4 8 11 10 8 6 5 4 2 1 1 1 2 2 2 2 2 2 2 2 2 2 3 4 3 3 3 3 3 3 3 3 3 3 3 4 4 3
1 1 1 1 2 3 4 3 2 2 4 9 10 9 8 7 5 3 3 2 2 1 0 1 1 2 2 2 2 3 2 2 2 3 3 3 2 3 3 3 3 3 3 3 3 3 3 3 3
1 2 2 2 2 2 5 3 3 2 6 9 9 7 7 6 5 3 3 3 2 2 1 1 2 1 2 2 2 2 2 2 2 2 2 3 2 2 2 3 2 2 2 2 2 2 2 2 2
2 4 4 2 2 1 5 4 2 3 7 7 7 6 5 3 4 4 4 3 3 2 2 2 2 2 2 2 2 2 2 2 2 2 2 2 2 2 2 2 2 2 2 3 2 3 2 2 2
4 4 2 2 2 2 6 0 1 3 7 6 5 5 4 2 3 4 4 3 2 2 2 2 3 3 2 2 2 2 2 2 2 2 2 2 2 2 2 2 2 2 2 2 2 2 2 2 2
4 2 1 2 1 2 3 2 2 3 6 5 5 5 4 3 2 2 3 3 3 3 2 2 2 3 2 2 2 2 3 3 2 2 2 2 2 2 3 2 2 2 2 2 2 2 2 2 2
1 1 1 2 1 3 2 2 1 3 5 5 4 4 4 4 3 2 3 3 3 2 2 2 2 2 3 2 2 3 3 2 2 2 2 2 2 3 3 2 2 2 2 2 2 2 2 2 1
4 3 2 3 2 3 2 2 2 3 4 4 4 4 3 3 2 2 2 3 3 2 2 2 2 2 2 2 2 2 1 1 1 2 2 2 2 2 2 2 2 2 2 2 2 2 2 1 1
4 2 1 1 1 3 2 1 1 3 5 5 6 5 4 3 2 2 3 3 3 3 2 2 2 2 2 1 1 1 1 1 1 1 2 2 2 2 2 2 2 2 2 2 2 2 1 1 1
2 4 3 2 2 3 2 2 1 1 1 2 3 3 3 5 5 4 3 3 3 3 2 2 2 2 2 2 2 2 2 2 2 2 2 2 2 1 2 2 2 1 2 1 1 1 2 1 0
3 4 4 4 3 1 1 2 4 2 2 3 3 4 5 5 4 3 3 3 3 3 2 2 2 2 2 3 3 3 2 1 0 0 1 2 2 1 1 1 1 1 1 1 1 1 1 1 1
4 2 4 3 3 2 2 1 6 0 3 5 5 5 4 4 5 5 4 4 4 3 3 2 2 2 2 2 3 3 2 1 1 1 2 2 2 2 2 1 1 1 1 1 1 1 1 1 1
4 6 6 6 5 1 2 2 6 3 6 5 5 4 5 5 5 4 3 4 3 3 3 3 3 1 2 2 2 3 3 2 2 1 1 1 1 2 2 1 1 1 0 0 1 1 1 1 1
5 6 4 4 3 4 2 2 8 5 5 6 6 6 5 5 5 5 5 5 4 4 3 3 3 2 2 2 2 2 2 2 2 2 1 0 0 1 1 1 1 1 0 0 1 1 1 1 1
4 8 7 5 4 4 1 4 7 4 2 3 3 4 4 5 4 5 5 5 5 4 4 3 3 2 2 2 1 1 2 1 1 1 1 1 1 1 0 0 1 1 1 1 1 1 0 1 1
5 3 5 7 2 0 4 5 6 1 1 1 3 3 4 5 5 4 4 4 4 4 4 4 4 2 2 2 1 1 1 1 1 1 1 0 0 0 0 0 1 1 1 1 1 1 1 1 1
4 8 5 6 5 2 4 4 5 4 4 3 4 4 4 4 4 4 3 3 4 4 3 3 3 3 2 2 1 1 1 1 1 1 0 0 0 1 1 1 1 2 2 2 2 1 1 2 1
4 4 5 4 5 6 3 7 5 7 7 7 6 5 4 5 5 4 3 3 3 3 3 3 3 3 2 2 1 1 1 1 1 1 0 0 0 1 0 0 1 1 1 1 1 1 2 2 2
4 6 7 5 3 4 4 8 3 4 5 5 5 4 4 4 4 4 3 3 2 3 3 3 3 3 3 2 2 2 1 1 1 0 0 0 0 0 0 0 1 0 0 1 1 1 1 1 1
Wind_Direction
148 138 142 162 47 39 341 323 67 67 58 42 65 78 86 75 84 155 297 45 51 21 343 36 84 76 74 75 73 77 82 95 110 119 126 126 126 121 118 124 132 138 143 145 148 147 150 151 150
145 152 178 37 60 39 327 343 54 70 133 131 75 69 67 56 58 93 14 359 54 49 12 58 82 68 72 70 69 71 73 87 103 111 118 120 121 121 123 124 127 136 142 143 147 149 150 149 147
163 194 84 55 64 171 286 5 101 99 108 92 74 58 68 59 88 123 228 103 66 44 17 41 79 71 69 69 69 68 70 86 102 106 114 117 116 117 121 125 127 131 136 140 145 147 147 145 144
165 168 44 52 358 259 211 172 131 119 70 53 86 65 51 34 108 122 114 102 78 35 16 38 77 71 66 65 67 69 73 84 95 103 107 111 111 112 116 128 130 129 131 135 142 145 143 140 140
114 74 47 27 327 315 145 170 135 105 82 65 84 88 39 11 79 99 102 93 81 33 9 21 69 61 59 61 66 70 75 83 91 95 98 100 102 101 101 125 132 130 128 126 130 132 135 134 134
70 65 60 5 332 338 46 70 89 88 96 92 87 88 43 55 90 104 95 80 66 47 16 7 47 53 50 54 63 73 76 83 87 91 93 94 93 88 84 109 127 132 131 127 124 122 124 124 127
104 82 87 250 323 355 44 41 84 105 103 102 108 90 69 93 105 108 85 69 56 41 24 6 6 17 43 58 68 79 82 81 82 83 86 89 89 84 81 94 111 124 126 124 123 123 120 118 120
148 94 50 20 352 299 30 48 92 98 99 107 101 123 171 167 124 97 74 56 50 35 17 7 8 14 17 29 57 74 80 77 76 78 75 79 86 87 82 84 100 111 115 118 121 118 115 110 111
127 74 166 206 182 242 111 69 50 72 95 83 79 124 141 127 116 100 78 46 37 33 6 4 8 14 20 30 45 58 68 66 65 63 63 61 49 59 75 85 94 100 106 110 112 113 112 108 108
111 128 226 212 178 177 155 97 111 91 89 76 73 82 112 120 124 121 121 122 96 18 348 359 9 15 22 40 44 44 52 50 49 47 47 43 46 53 66 75 86 92 97 102 105 106 101 90 89
156 197 246 216 172 149 128 92 83 113 131 167 147 139 136 132 133 132 137 142 163 184 5 0 18 32 39 40 46 41 47 47 45 49 51 54 52 51 52 53 55 61 72 75 82 81 76 78 84
163 272 241 191 140 113 126 105 79 90 190 145 139 139 140 142 147 154 159 160 138 98 16 7 32 45 43 48 45 44 47 49 44 45 51 57 57 56 56 56 53 54 62 68 65 68 65 73 78
118 332 32 121 108 107 92 84 99 60 95 110 118 126 141 149 155 161 153 144 135 136 129 53 58 60 59 60 45 51 45 50 53 46 48 61 67 64 64 65 63 62 70 79 80 74 64 65 69
131 81 59 54 91 100 102 73 80 85 111 118 127 135 148 155 158 151 148 156 164 173 172 131 102 85 82 75 60 48 42 47 55 50 47 58 72 76 78 75 70 69 73 81 87 89 78 63 68
70 64 36 26 49 97 98 44 32 128 126 130 139 141 142 153 157 168 175 174 176 174 163 144 140 102 95 78 65 61 49 58 56 48 48 57 74 87 90 85 82 82 85 91 93 88 85 88 80
47 56 32 325 44 85 103 164 298 131 137 143 148 147 148 175 180 175 163 157 158 149 149 152 138 117 108 92 74 63 57 62 53 47 46 49 66 88 91 87 83 88 85 88 95 90 86 79 76
38 61 289 316 15 93 106 199 237 150 154 158 159 161 163 173 200 177 157 153 155 154 146 137 122 122 120 102 83 69 64 59 47 49 51 51 60 78 88 84 73 81 84 83 98 85 97 94 80
227 195 244 252 265 106 132 209 206 164 165 171 165 164 171 184 213 185 147 142 138 131 123 120 111 105 102 87 74 63 57 47 47 49 47 54 58 68 81 79 64 72 80 72 81 87 76 88 96
166 170 228 248 197 130 170 198 198 180 175 175 169 176 192 201 188 144 138 127 115 107 108 120 112 99 94 86 89 78 59 32 31 40 47 46 55 69 81 79 68 71 82 90 100 101 90 79 95
156 157 231 324 107 137 152 232 215 196 198 185 180 186 192 175 152 151 142 132 133 133 125 125 122 117 119 118 120 122 108 75 53 31 39 36 49 66 88 90 86 84 89 83 85 110 113 88 81
187 185 192 176 81 66 96 346 289 265 201 166 172 182 185 183 184 174 161 152 140 137 149 166 153 138 127 109 92 78 60 42 33 26 21 13 34 61 78 92 94 91 103 112 118 137 145 163 48
242 215 173 154 120 298 114 271 278 244 246 207 195 192 195 193 181 175 166 159 156 157 147 146 150 136 125 119 114 116 113 107 289 337 359 5 28 47 67 84 98 108 114 131 173 136 150 153 198
206 130 116 113 118 63 26 149 286 304 237 235 213 197 192 186 175 177 179 171 163 151 143 141 139 134 130 130 134 126 115 130 78 50 38 16 11 24 41 67 91 104 112 142 135 118 139 154 172
123 74 60 51 67 1 259 174 276 234 223 222 205 192 186 180 172 171 156 144 150 146 140 140 138 139 133 134 140 144 148 148 119 78 45 10 6 8 15 39 48 88 124 173 167 149 156 158 158
100 91 44 5 11 258 269 195 253 252 226 206 197 195 186 177 171 167 161 160 161 158 158 152 151 158 141 144 165 169 171 168 174 182 176 142 0 344 340 6 24 31 171 185 137 124 132 142 157
164 139 155 191 215 267 312 242 259 273 242 190 176 174 165 163 165 171 175 171 169 169 162 160 166 171 154 154 174 168 170 172 203 205 175 176 218 260 323 37 23 20 44 104 111 99 108 111 156
136 153 156 128 131 290 280 284 300 10 45 134 144 153 169 169 164 160 162 164 170 174 171 172 168 168 169 174 173 159 158 169 195 203 152 163 261 259 73 67 45 31 38 64 86 70 45 68 66
126 140 104 116 142 227 285 273 254 241 219 201 189 186 175 164 153 151 159 163 171 169 163 159 164 172 166 150 157 138 140 156 168 141 157 154 117 26 51 43 42 38 37 55 75 67 54 67 50
106 92 102 109 144 155 228 265 234 214 200 193 199 191 171 164 166 165 164 157 152 145 147 146 148 140 134 140 131 113 115 114 109 137 196 230 34 62 55 81 55 31 16 45 78 78 80 85 64
143 152 145 146 191 167 175 263 284 217 196 187 187 176 166 161 158 155 148 142 135 134 146 150 148 155 170 165 149 148 146 131 119 185 249 132 91 69 191 158 133 203 162 70 100 104 96 114 109